Location: Dammartin
(48.9032°N, 1.6195°E)
Time: 13:00:34
(UTC+00:00)

YUBILEINY - Pass Details

Date: 08 December 2023
Orbit: 1479 x 1508 km, 82.5° (Epoch: 02 March)

Event Time Altitude Azimuth Distance (km) Brightness Sun altitude
Rises 20:53:50 0° 347° (NNW) 4,629 ? -47.3°
Reaches altitude 10° 20:56:52 10° 341° (NNW) 3,641 ? -47.8°
Enters shadow 21:02:00 34° 316° (NW) 2,252 ? -48.6°
